Location: Unspecified
(0.0000°N, 0.0000°E)
Time: 11:37:34
(UTC+00:00)

A-11 Canister half - Pass Details

Date: 03 August 2021
Orbit: 1515 x 1685 km, 47.2° (Epoch: 27 September)

Event Time Altitude Azimuth Distance (km) Brightness Sun altitude
Rises 13:45:44 0° 229° (SW) 4,662 11.6 60.0°
Reaches altitude 10° 13:48:48 10° 233° (SW) 3,688 11.3 59.4°
Maximum altitude 13:57:52 57° 310° (NW) 1,773 13.1 57.5°
Drops below altitude 10° 14:07:13 10° 27° (NNE) 3,789 11.2 55.5°
Sets 14:10:26 0° 31° (NNE) 4,797 11.6 54.9°
